SXS47B EDDH-LTAI

Flight info

Callsign SXS47B
Flight time 3h 11m
Altitude 36000
Route AMLUH2G AMLUH M852 DENIX DCT ZUCKA DCT EKPEK DCT OMELO DCT VLM DCT NAVTI DCT BEGLA DCT KEROP DCT ESIRI DCT OBLAK DCT NISVA DCT OTKOK N131 RODIP DCT BELGI UN131 KULAR UT39 NESIL
Aircraft B738/M-SDE2E3FGHIRWXY/LB1

Departure

Time 2026-02-18 07:42
Airport Hamburg Helmut Schmidt Airport (EDDH)

Arrival

Time 2026-02-18 10:53
Airport Antalya International Airport (LTAI)
Time Latitude Longitude Altitude Speed Heading
2026-02-18 06:53 53.63075 10.00370 50 ft 0 kts 99°
2026-02-18 07:33 53.63076 10.00368 22 ft 1 kts 99°
2026-02-18 07:34 53.63078 10.00342 50 ft 3 kts 102°
2026-02-18 07:34 53.63083 10.00309 44 ft 3 kts 108°
2026-02-18 07:34 53.63090 10.00277 48 ft 3 kts 116°
2026-02-18 07:34 53.63100 10.00248 43 ft 3 kts 131°
2026-02-18 07:35 53.63113 10.00228 48 ft 3 kts 161°
2026-02-18 07:35 53.63121 10.00224 47 ft 0 kts 176°
2026-02-18 07:38 53.63080 10.00221 47 ft 0 kts 196°
2026-02-18 07:39 53.63074 10.00218 48 ft 5 kts 197°
2026-02-18 07:39 53.63018 10.00167 47 ft 10 kts 212°
2026-02-18 07:39 53.62959 10.00103 50 ft 10 kts 222°
2026-02-18 07:39 53.62924 10.00006 49 ft 10 kts 245°
2026-02-18 07:40 53.62901 9.99927 48 ft 0 kts 244°
2026-02-18 07:40 53.62858 9.99772 47 ft 7 kts 265°
2026-02-18 07:41 53.62893 9.99720 49 ft 12 kts 332°
2026-02-18 07:41 53.63220 9.99439 49 ft 93 kts 333°
2026-02-18 07:41 53.63956 9.98803 49 ft 154 kts 330°
2026-02-18 07:41 53.64986 9.97832 417 ft 182 kts 330°
2026-02-18 07:42 53.66122 9.96823 1343 ft 183 kts 335°
2026-02-18 07:42 53.67270 9.95876 2287 ft 189 kts 335°
2026-02-18 07:42 53.68477 9.94907 2797 ft 199 kts 340°
2026-02-18 07:42 53.69880 9.94692 3166 ft 215 kts 15°
2026-02-18 07:43 53.71145 9.96004 3706 ft 225 kts 47°
2026-02-18 07:43 53.71785 9.98484 4242 ft 245 kts 81°
2026-02-18 07:43 53.71516 10.01428 4820 ft 262 kts 102°
2026-02-18 07:43 53.71017 10.04410 5583 ft 267 kts 101°
2026-02-18 07:44 53.70531 10.07450 6420 ft 269 kts 100°
2026-02-18 07:44 53.70055 10.10544 7185 ft 274 kts 100°
2026-02-18 07:44 53.69093 10.16891 8637 ft 285 kts 103°
2026-02-18 07:45 53.68139 10.19802 9325 ft 298 kts 133°
2026-02-18 07:45 53.66369 10.21631 10052 ft 303 kts 162°
2026-02-18 07:45 53.64297 10.22636 10519 ft 314 kts 165°
2026-02-18 07:45 53.62855 10.23275 10851 ft 321 kts 166°
2026-02-18 07:46 53.60687 10.24221 11414 ft 327 kts 166°
2026-02-18 07:46 53.58526 10.25175 12031 ft 332 kts 166°
2026-02-18 07:46 53.56293 10.26175 12622 ft 338 kts 165°
2026-02-18 07:46 53.54055 10.27190 13168 ft 344 kts 165°
2026-02-18 07:47 53.51737 10.28249 13766 ft 349 kts 165°
2026-02-18 07:47 53.49415 10.29314 14317 ft 354 kts 165°
2026-02-18 07:47 53.47049 10.30399 14957 ft 355 kts 165°
2026-02-18 07:47 53.44686 10.31481 15554 ft 357 kts 166°
2026-02-18 07:48 53.42371 10.32539 16118 ft 360 kts 166°
2026-02-18 07:48 53.39910 10.33649 16763 ft 362 kts 166°
2026-02-18 07:48 53.34997 10.35848 17938 ft 369 kts 166°
2026-02-18 07:49 53.32515 10.36958 18484 ft 372 kts 167°
2026-02-18 07:49 53.30052 10.38057 18938 ft 376 kts 167°
2026-02-18 07:49 53.27499 10.39198 19402 ft 381 kts 168°
2026-02-18 07:49 53.24955 10.40333 19973 ft 384 kts 168°
2026-02-18 07:50 53.22368 10.41486 20486 ft 389 kts 169°
2026-02-18 07:50 53.19740 10.42657 20979 ft 394 kts 169°
2026-02-18 07:50 53.17092 10.43834 21497 ft 398 kts 169°
2026-02-18 07:50 53.14396 10.45031 22007 ft 403 kts 170°
2026-02-18 07:51 53.11675 10.46170 22493 ft 406 kts 173°
2026-02-18 07:51 53.08913 10.47111 22994 ft 409 kts 175°
2026-02-18 07:51 53.06123 10.47962 23491 ft 412 kts 176°
2026-02-18 07:51 53.03285 10.48799 23923 ft 415 kts 176°
2026-02-18 07:52 53.00441 10.49640 24441 ft 416 kts 176°
2026-02-18 07:52 52.97603 10.50491 24933 ft 417 kts 176°
2026-02-18 07:52 52.91875 10.52236 25810 ft 421 kts 177°
2026-02-18 07:53 52.88965 10.53131 26255 ft 424 kts 177°
2026-02-18 07:53 52.86131 10.54005 26676 ft 426 kts 177°
2026-02-18 07:53 52.83224 10.54902 27106 ft 428 kts 177°
2026-02-18 07:53 52.80313 10.55800 27528 ft 430 kts 177°
2026-02-18 07:54 52.77396 10.56699 27902 ft 431 kts 178°
2026-02-18 07:54 52.74447 10.57608 28419 ft 430 kts 178°
2026-02-18 07:54 52.71484 10.58519 28821 ft 433 kts 178°
2026-02-18 07:54 52.68521 10.59425 29155 ft 437 kts 178°
2026-02-18 07:55 52.65515 10.60340 29377 ft 443 kts 178°
2026-02-18 07:55 52.62542 10.61247 29780 ft 444 kts 178°
2026-02-18 07:55 52.59506 10.62176 30194 ft 444 kts 178°
2026-02-18 07:55 52.56440 10.63114 30522 ft 446 kts 178°
2026-02-18 07:56 52.53378 10.64048 30846 ft 447 kts 178°
2026-02-18 07:56 52.50350 10.64970 31165 ft 446 kts 178°
2026-02-18 07:56 52.44250 10.66823 31808 ft 448 kts 178°
2026-02-18 07:57 52.41183 10.67749 32045 ft 451 kts 178°
2026-02-18 07:57 52.38083 10.68684 32309 ft 453 kts 178°
2026-02-18 07:57 52.34979 10.69620 32597 ft 454 kts 178°
2026-02-18 07:57 52.31909 10.70546 32872 ft 455 kts 178°
2026-02-18 07:58 52.28786 10.71486 33125 ft 457 kts 178°
2026-02-18 07:58 52.25680 10.72420 33378 ft 457 kts 178°
2026-02-18 07:58 52.22552 10.73361 33695 ft 457 kts 178°
2026-02-18 07:58 52.19419 10.74300 33920 ft 459 kts 178°
2026-02-18 07:59 52.16275 10.75240 34087 ft 461 kts 178°
2026-02-18 07:59 52.13119 10.76181 34252 ft 463 kts 178°
2026-02-18 07:59 52.09922 10.77135 34435 ft 464 kts 178°
2026-02-18 07:59 52.06740 10.78084 34623 ft 465 kts 178°
2026-02-18 08:00 52.03554 10.79033 34829 ft 466 kts 178°
2026-02-18 08:00 52.00401 10.79970 34973 ft 466 kts 178°
2026-02-18 08:00 51.94000 10.81866 35215 ft 472 kts 178°
2026-02-18 08:01 51.90728 10.82832 35310 ft 475 kts 178°
2026-02-18 08:01 51.87522 10.83780 35504 ft 476 kts 178°
2026-02-18 08:01 51.84236 10.84753 35694 ft 476 kts 177°
2026-02-18 08:01 51.80977 10.85714 35865 ft 477 kts 177°
2026-02-18 08:02 51.77694 10.86680 35910 ft 480 kts 177°
2026-02-18 08:02 51.71139 10.88952 35913 ft 498 kts 162°
2026-02-18 08:02 51.68134 10.91833 35969 ft 513 kts 143°
2026-02-18 08:03 51.65647 10.96043 35917 ft 523 kts 124°
2026-02-18 08:03 51.62636 11.05896 35967 ft 525 kts 112°
2026-02-18 08:04 51.59758 11.16664 35955 ft 528 kts 112°
2026-02-18 08:04 51.55289 11.32855 35932 ft 523 kts 114°
2026-02-18 08:05 51.52297 11.43381 35939 ft 518 kts 114°
2026-02-18 08:05 51.49280 11.53926 35944 ft 518 kts 114°
2026-02-18 08:06 51.46280 11.64382 35922 ft 519 kts 114°
2026-02-18 08:06 51.43258 11.74885 35934 ft 519 kts 114°
2026-02-18 08:07 51.40246 11.85307 35941 ft 520 kts 114°
2026-02-18 08:07 51.37196 11.95814 35959 ft 521 kts 114°
2026-02-18 08:08 51.34285 12.05786 35953 ft 522 kts 114°
2026-02-18 08:09 51.29710 12.21397 35940 ft 523 kts 114°
2026-02-18 08:09 51.26616 12.31898 35935 ft 523 kts 114°
2026-02-18 08:10 51.23496 12.42439 35949 ft 523 kts 114°
2026-02-18 08:10 51.20381 12.52915 35948 ft 523 kts 114°
2026-02-18 08:11 51.17263 12.63356 35938 ft 522 kts 114°
2026-02-18 08:11 51.14126 12.73817 35934 ft 521 kts 114°
2026-02-18 08:12 51.11023 12.84117 35935 ft 520 kts 114°
2026-02-18 08:12 51.06344 12.99570 35927 ft 517 kts 114°
2026-02-18 08:13 51.03405 13.09225 35931 ft 517 kts 114°
2026-02-18 08:13 51.00274 13.19476 35942 ft 517 kts 114°
2026-02-18 08:14 50.97150 13.29668 35923 ft 517 kts 114°
2026-02-18 08:14 50.94734 13.40354 35932 ft 514 kts 103°
2026-02-18 08:15 50.92835 13.51265 35918 ft 514 kts 102°
2026-02-18 08:15 50.90888 13.62162 35918 ft 515 kts 103°
2026-02-18 08:16 50.88871 13.73048 35916 ft 515 kts 103°
2026-02-18 08:16 50.86850 13.83861 35915 ft 516 kts 103°
2026-02-18 08:17 50.82752 13.99394 35923 ft 518 kts 130°
2026-02-18 08:17 50.80541 14.03102 35916 ft 516 kts 142°
2026-02-18 08:18 50.77674 14.06386 35915 ft 511 kts 152°
2026-02-18 08:18 50.71551 14.12101 35916 ft 511 kts 153°
2026-02-18 08:19 50.65455 14.17760 35928 ft 511 kts 153°
2026-02-18 08:19 50.59368 14.23523 35904 ft 512 kts 152°
2026-02-18 08:20 50.53269 14.29346 35906 ft 513 kts 152°
2026-02-18 08:20 50.47163 14.35165 35921 ft 514 kts 152°
2026-02-18 08:21 50.41144 14.40876 35919 ft 514 kts 153°
2026-02-18 08:21 50.31947 14.49563 35943 ft 515 kts 152°
2026-02-18 08:22 50.25788 14.55357 35937 ft 515 kts 152°
2026-02-18 08:22 50.19751 14.61020 35941 ft 516 kts 152°
2026-02-18 08:23 50.13592 14.66782 35939 ft 516 kts 153°
2026-02-18 08:23 50.07503 14.72459 35935 ft 516 kts 153°
2026-02-18 08:24 50.01364 14.78167 35946 ft 515 kts 152°
2026-02-18 08:24 49.95257 14.83828 35925 ft 515 kts 152°
2026-02-18 08:25 49.86235 14.92160 35924 ft 512 kts 153°
2026-02-18 08:26 49.80073 14.97830 35937 ft 512 kts 153°
2026-02-18 08:26 49.74296 15.03132 35938 ft 512 kts 153°
2026-02-18 08:27 49.68311 15.09055 35935 ft 515 kts 144°
2026-02-18 08:27 49.62797 15.15957 35911 ft 515 kts 142°
2026-02-18 08:28 49.58401 15.21548 35947 ft 515 kts 142°
2026-02-18 08:28 49.52920 15.28426 35949 ft 515 kts 143°
2026-02-18 08:29 49.47351 15.35316 35955 ft 516 kts 143°
2026-02-18 08:29 49.38932 15.45666 35953 ft 517 kts 143°
2026-02-18 08:30 49.33347 15.52512 35957 ft 517 kts 143°
2026-02-18 08:30 49.27736 15.59373 35959 ft 517 kts 143°
2026-02-18 08:31 49.22131 15.66206 35956 ft 517 kts 143°
2026-02-18 08:31 49.16507 15.73041 35960 ft 518 kts 143°
2026-02-18 08:32 49.10856 15.79889 35961 ft 517 kts 143°
2026-02-18 08:32 49.05258 15.86653 35956 ft 517 kts 144°
2026-02-18 08:33 48.96867 15.96754 35943 ft 517 kts 144°
2026-02-18 08:34 48.91553 16.03125 35965 ft 517 kts 144°
2026-02-18 08:34 48.86839 16.08767 35958 ft 517 kts 144°
2026-02-18 08:35 48.81208 16.15490 35942 ft 517 kts 144°
2026-02-18 08:35 48.75503 16.22159 35965 ft 515 kts 148°
2026-02-18 08:36 48.69567 16.28102 35980 ft 514 kts 151°
2026-02-18 08:36 48.63473 16.33922 35987 ft 514 kts 150°
2026-02-18 08:37 48.57450 16.39743 35980 ft 515 kts 150°
2026-02-18 08:37 48.48525 16.48472 35973 ft 513 kts 150°
2026-02-18 08:38 48.42526 16.54331 35977 ft 513 kts 150°
2026-02-18 08:38 48.36595 16.60100 36004 ft 513 kts 150°
2026-02-18 08:39 48.30601 16.65911 35961 ft 513 kts 150°
2026-02-18 08:39 48.24592 16.71722 35999 ft 513 kts 150°
2026-02-18 08:40 48.18624 16.77475 36003 ft 513 kts 150°
2026-02-18 08:40 48.12633 16.83234 36001 ft 514 kts 150°
2026-02-18 08:41 48.03693 16.91799 35966 ft 515 kts 151°
2026-02-18 08:42 47.97743 16.97481 35993 ft 516 kts 151°
2026-02-18 08:42 47.92062 17.02891 36001 ft 517 kts 151°
2026-02-18 08:43 47.86012 17.08638 36007 ft 518 kts 151°
2026-02-18 08:43 47.80427 17.15400 36020 ft 524 kts 133°
2026-02-18 08:44 47.75585 17.23461 35996 ft 526 kts 132°
2026-02-18 08:44 47.70728 17.31616 36002 ft 527 kts 133°
2026-02-18 08:45 47.65821 17.39705 36020 ft 528 kts 133°
2026-02-18 08:45 47.58372 17.51810 36020 ft 529 kts 133°
2026-02-18 08:46 47.53436 17.59794 36021 ft 529 kts 133°
2026-02-18 08:46 47.48462 17.67823 36020 ft 528 kts 133°
2026-02-18 08:47 47.43502 17.75807 36007 ft 527 kts 133°
2026-02-18 08:47 47.38594 17.83687 36011 ft 524 kts 133°
2026-02-18 08:48 47.33609 17.91665 36005 ft 522 kts 133°
2026-02-18 08:48 47.28714 17.99476 36002 ft 520 kts 133°
2026-02-18 08:49 47.21643 18.10716 36016 ft 517 kts 134°
2026-02-18 08:50 47.16763 18.18449 35995 ft 515 kts 134°
2026-02-18 08:50 47.11923 18.26094 35997 ft 515 kts 134°
2026-02-18 08:51 47.07040 18.33787 36000 ft 516 kts 134°
2026-02-18 08:51 47.02137 18.41487 36012 ft 517 kts 134°
2026-02-18 08:52 46.97240 18.49156 35998 ft 519 kts 134°
2026-02-18 08:52 46.92327 18.56828 35995 ft 520 kts 134°
2026-02-18 08:53 46.87390 18.64515 35991 ft 520 kts 134°
2026-02-18 08:53 46.79906 18.76127 35993 ft 521 kts 134°
2026-02-18 08:54 46.74958 18.83776 35996 ft 521 kts 134°
2026-02-18 08:54 46.69978 18.91453 35995 ft 521 kts 134°
2026-02-18 08:55 46.65021 18.99072 36006 ft 519 kts 134°
2026-02-18 08:55 46.60343 19.06243 35952 ft 517 kts 134°
2026-02-18 08:56 46.55464 19.13702 35983 ft 515 kts 134°
2026-02-18 08:56 46.50505 19.21261 35990 ft 514 kts 134°
2026-02-18 08:57 46.43180 19.32389 35997 ft 512 kts 135°
2026-02-18 08:58 46.38279 19.39807 35985 ft 512 kts 135°
2026-02-18 08:58 46.33368 19.47222 35978 ft 511 kts 135°
2026-02-18 08:59 46.28459 19.54613 35984 ft 510 kts 135°
2026-02-18 08:59 46.23541 19.62000 35993 ft 511 kts 135°
2026-02-18 09:00 46.18610 19.69290 35982 ft 512 kts 139°
2026-02-18 09:00 46.12910 19.75403 35995 ft 510 kts 149°
2026-02-18 09:01 46.06986 19.81071 35987 ft 511 kts 149°
2026-02-18 09:01 45.98174 19.89579 35981 ft 513 kts 148°
2026-02-18 09:02 45.92264 19.95356 35990 ft 515 kts 148°
2026-02-18 09:02 45.86675 20.00820 35987 ft 516 kts 148°
2026-02-18 09:03 45.80703 20.06639 36008 ft 517 kts 148°
2026-02-18 09:03 45.74782 20.12389 35988 ft 518 kts 148°
2026-02-18 09:04 45.68838 20.18145 35981 ft 518 kts 148°
2026-02-18 09:04 45.62826 20.23951 35990 ft 519 kts 148°
2026-02-18 09:05 45.53910 20.32534 35967 ft 518 kts 148°
2026-02-18 09:06 45.47932 20.38270 35983 ft 517 kts 148°
2026-02-18 09:06 45.41974 20.43972 35983 ft 517 kts 148°
2026-02-18 09:07 45.35988 20.49687 35984 ft 517 kts 148°
2026-02-18 09:07 45.30007 20.55381 36004 ft 516 kts 148°
2026-02-18 09:08 45.24071 20.61018 35984 ft 516 kts 148°
2026-02-18 09:08 45.18118 20.66657 35982 ft 515 kts 148°
2026-02-18 09:09 45.12199 20.72249 35978 ft 515 kts 148°
2026-02-18 09:09 45.03293 20.80638 35953 ft 515 kts 148°
2026-02-18 09:10 44.97400 20.86170 35974 ft 514 kts 148°
2026-02-18 09:10 44.91417 20.91773 35978 ft 514 kts 148°
2026-02-18 09:11 44.85472 20.97326 35980 ft 514 kts 148°
2026-02-18 09:11 44.79989 21.02435 35988 ft 514 kts 148°
2026-02-18 09:12 44.74053 21.07954 35974 ft 514 kts 148°
2026-02-18 09:12 44.68070 21.13503 35978 ft 513 kts 148°
2026-02-18 09:13 44.59133 21.21765 36005 ft 512 kts 148°
2026-02-18 09:14 44.53194 21.27238 35952 ft 511 kts 148°
2026-02-18 09:14 44.47293 21.32663 35974 ft 510 kts 148°
2026-02-18 09:15 44.41349 21.38114 35971 ft 510 kts 148°
2026-02-18 09:15 44.35394 21.43565 35990 ft 509 kts 148°
2026-02-18 09:16 44.29584 21.49180 35954 ft 510 kts 143°
2026-02-18 09:16 44.24005 21.55308 35958 ft 511 kts 142°
2026-02-18 09:17 44.18466 21.61477 35959 ft 511 kts 142°
2026-02-18 09:17 44.10109 21.70621 35942 ft 512 kts 143°
2026-02-18 09:18 44.04474 21.76725 35931 ft 512 kts 143°
2026-02-18 09:18 43.98904 21.82744 35933 ft 512 kts 143°
2026-02-18 09:19 43.93284 21.88807 35953 ft 512 kts 143°
2026-02-18 09:19 43.87650 21.94872 35928 ft 512 kts 143°
2026-02-18 09:20 43.82297 22.00619 35924 ft 512 kts 143°
2026-02-18 09:20 43.76667 22.06650 35916 ft 510 kts 143°
2026-02-18 09:21 43.68367 22.15516 35921 ft 510 kts 143°
2026-02-18 09:22 43.62780 22.21465 35930 ft 510 kts 143°
2026-02-18 09:22 43.54319 22.30450 35922 ft 511 kts 143°
2026-02-18 09:23 43.48683 22.36404 35927 ft 512 kts 144°
2026-02-18 09:23 43.42718 22.41740 35925 ft 511 kts 150°
2026-02-18 09:24 43.36620 22.46760 35926 ft 512 kts 150°
2026-02-18 09:24 43.31536 22.50984 35918 ft 513 kts 150°
2026-02-18 09:25 43.22419 22.58681 35906 ft 514 kts 149°
2026-02-18 09:26 43.16330 22.63826 35925 ft 513 kts 149°
2026-02-18 09:26 43.10240 22.68951 35903 ft 513 kts 149°
2026-02-18 09:27 43.04177 22.74040 35894 ft 513 kts 149°
2026-02-18 09:27 42.98158 22.79107 35897 ft 513 kts 147°
2026-02-18 09:28 42.92685 22.85370 35892 ft 513 kts 136°
2026-02-18 09:28 42.87529 22.92084 35886 ft 512 kts 136°
2026-02-18 09:29 42.82367 22.98755 35868 ft 512 kts 137°
2026-02-18 09:29 42.74877 23.08253 35842 ft 511 kts 137°
2026-02-18 09:30 42.69655 23.14828 35846 ft 511 kts 137°
2026-02-18 09:30 42.64447 23.21374 35838 ft 512 kts 137°
2026-02-18 09:31 42.59219 23.27934 35833 ft 512 kts 137°
2026-02-18 09:31 42.54019 23.34443 35810 ft 511 kts 137°
2026-02-18 09:32 42.48778 23.40989 35837 ft 510 kts 137°
2026-02-18 09:32 42.43541 23.47514 35858 ft 510 kts 137°
2026-02-18 09:33 42.35788 23.57144 35838 ft 510 kts 137°
2026-02-18 09:34 42.30556 23.63625 35815 ft 509 kts 138°
2026-02-18 09:34 42.25321 23.70095 35822 ft 509 kts 138°
2026-02-18 09:35 42.20112 23.76517 35796 ft 509 kts 138°
2026-02-18 09:35 42.14901 23.82926 35793 ft 509 kts 138°
2026-02-18 09:36 42.09672 23.89343 35764 ft 508 kts 138°
2026-02-18 09:36 42.04472 23.95711 35765 ft 507 kts 138°
2026-02-18 09:37 41.99606 24.01656 35768 ft 506 kts 138°
2026-02-18 09:37 41.91766 24.11096 35764 ft 506 kts 139°
2026-02-18 09:38 41.86501 24.17396 35759 ft 506 kts 139°
2026-02-18 09:38 41.81254 24.23671 35751 ft 506 kts 139°
2026-02-18 09:39 41.76009 24.29936 35735 ft 505 kts 139°
2026-02-18 09:39 41.70744 24.36211 35730 ft 505 kts 139°
2026-02-18 09:40 41.65507 24.42438 35732 ft 508 kts 140°
2026-02-18 09:40 41.60209 24.48721 35749 ft 512 kts 139°
2026-02-18 09:41 41.52248 24.58139 35727 ft 513 kts 140°
2026-02-18 09:42 41.46925 24.64418 35735 ft 513 kts 139°
2026-02-18 09:42 41.41655 24.70639 35725 ft 512 kts 138°
2026-02-18 09:43 41.36511 24.77207 35730 ft 511 kts 136°
2026-02-18 09:43 41.31471 24.83897 35721 ft 510 kts 135°
2026-02-18 09:44 41.26452 24.90510 35731 ft 508 kts 136°
2026-02-18 09:44 41.21412 24.97076 35716 ft 507 kts 136°
2026-02-18 09:45 41.16610 25.03296 35746 ft 506 kts 136°
2026-02-18 09:45 41.09078 25.13028 35742 ft 505 kts 136°
2026-02-18 09:46 41.04022 25.19546 35741 ft 505 kts 136°
2026-02-18 09:46 40.99043 25.25952 35744 ft 506 kts 136°
2026-02-18 09:47 40.94022 25.32396 35733 ft 506 kts 137°
2026-02-18 09:47 40.88957 25.38883 35756 ft 507 kts 137°
2026-02-18 09:48 40.83897 25.45348 35760 ft 507 kts 137°
2026-02-18 09:48 40.78817 25.51824 35763 ft 507 kts 137°
2026-02-18 09:49 40.71177 25.61538 35774 ft 508 kts 137°
2026-02-18 09:50 40.66085 25.67994 35780 ft 508 kts 137°
2026-02-18 09:50 40.61017 25.74406 35782 ft 509 kts 137°
2026-02-18 09:51 40.55915 25.80847 35770 ft 508 kts 137°
2026-02-18 09:51 40.50803 25.87289 35775 ft 507 kts 137°
2026-02-18 09:52 40.46106 25.93882 35790 ft 507 kts 132°
2026-02-18 09:52 40.41676 26.00627 35786 ft 506 kts 132°
2026-02-18 09:53 40.37166 26.07463 35768 ft 506 kts 132°
2026-02-18 09:53 40.30236 26.17797 35790 ft 504 kts 133°
2026-02-18 09:54 40.25593 26.24677 35797 ft 504 kts 133°
2026-02-18 09:54 40.20957 26.31540 35809 ft 504 kts 133°
2026-02-18 09:55 40.16302 26.38419 35807 ft 505 kts 133°
2026-02-18 09:55 40.11598 26.45184 35801 ft 505 kts 136°
2026-02-18 09:56 40.06621 26.51572 35780 ft 505 kts 138°
2026-02-18 09:56 40.01582 26.57895 35792 ft 505 kts 138°
2026-02-18 09:57 39.94084 26.67432 35788 ft 505 kts 138°
2026-02-18 09:58 39.89065 26.73840 35808 ft 505 kts 138°
2026-02-18 09:58 39.84022 26.80259 35773 ft 505 kts 138°
2026-02-18 09:59 39.79102 26.86507 35782 ft 505 kts 138°
2026-02-18 09:59 39.74077 26.92825 35752 ft 504 kts 139°
2026-02-18 10:00 39.69047 26.98988 35749 ft 503 kts 140°
2026-02-18 10:00 39.64352 27.04723 35742 ft 503 kts 140°
2026-02-18 10:01 39.59316 27.10890 35751 ft 502 kts 140°
2026-02-18 10:01 39.51750 27.20142 35760 ft 502 kts 140°
2026-02-18 10:02 39.47000 27.26645 35765 ft 505 kts 132°
2026-02-18 10:02 39.42716 27.33630 35760 ft 506 kts 131°
2026-02-18 10:03 39.38304 27.40664 35737 ft 506 kts 132°
2026-02-18 10:03 39.34064 27.47268 35745 ft 505 kts 133°
2026-02-18 10:04 39.29706 27.54035 35736 ft 504 kts 133°
2026-02-18 10:04 39.25291 27.60890 35731 ft 504 kts 133°
2026-02-18 10:05 39.18559 27.71319 35725 ft 505 kts 133°
2026-02-18 10:06 39.14089 27.78228 35681 ft 504 kts 133°
2026-02-18 10:06 39.09603 27.85147 35687 ft 503 kts 133°
2026-02-18 10:07 39.05113 27.92048 35697 ft 503 kts 133°
2026-02-18 10:07 39.00662 27.98872 35701 ft 503 kts 133°
2026-02-18 10:08 38.96453 28.05314 35694 ft 504 kts 133°
2026-02-18 10:08 38.91944 28.12203 35688 ft 504 kts 134°
2026-02-18 10:09 38.87450 28.19055 35685 ft 504 kts 134°
2026-02-18 10:09 38.80675 28.29355 35675 ft 505 kts 134°
2026-02-18 10:10 38.76142 28.36229 35669 ft 506 kts 134°
2026-02-18 10:10 38.71603 28.43099 35670 ft 506 kts 134°
2026-02-18 10:11 38.67037 28.49993 35661 ft 507 kts 134°
2026-02-18 10:11 38.62467 28.56883 35654 ft 508 kts 134°
2026-02-18 10:12 38.57778 28.63600 35645 ft 504 kts 142°
2026-02-18 10:12 38.52282 28.68831 35657 ft 496 kts 151°
2026-02-18 10:13 38.43733 28.76285 35652 ft 496 kts 151°
2026-02-18 10:14 38.39046 28.80435 35647 ft 497 kts 151°
2026-02-18 10:14 38.33387 28.85482 35656 ft 498 kts 151°
2026-02-18 10:15 38.27766 28.90494 35649 ft 498 kts 151°
2026-02-18 10:15 38.22086 28.95544 35642 ft 498 kts 151°
2026-02-18 10:15 38.19266 28.98043 35068 ft 506 kts 152°
2026-02-18 10:16 38.16672 29.00340 34557 ft 504 kts 152°
2026-02-18 10:16 38.13851 29.02840 33945 ft 504 kts 152°
2026-02-18 10:16 38.11058 29.05312 33193 ft 505 kts 152°
2026-02-18 10:16 38.08207 29.07835 32455 ft 498 kts 152°
2026-02-18 10:17 38.05396 29.10323 31706 ft 490 kts 151°
2026-02-18 10:17 37.99969 29.15115 30356 ft 475 kts 150°
2026-02-18 10:17 37.97284 29.17478 29633 ft 469 kts 150°
2026-02-18 10:18 37.94623 29.19817 28712 ft 462 kts 150°
2026-02-18 10:18 37.92004 29.22119 27987 ft 453 kts 150°
2026-02-18 10:18 37.89408 29.24396 27263 ft 455 kts 150°
2026-02-18 10:18 37.86772 29.26701 26492 ft 468 kts 150°
2026-02-18 10:19 37.84069 29.29063 25685 ft 483 kts 149°
2026-02-18 10:19 37.81386 29.31412 24958 ft 478 kts 149°
2026-02-18 10:19 37.78742 29.33735 24460 ft 459 kts 149°
2026-02-18 10:19 37.76221 29.35946 23945 ft 444 kts 149°
2026-02-18 10:20 37.73764 29.38097 23432 ft 430 kts 149°
2026-02-18 10:20 37.71380 29.40178 22889 ft 417 kts 149°
2026-02-18 10:20 37.69001 29.42250 22411 ft 416 kts 149°
2026-02-18 10:20 37.66627 29.44306 21914 ft 437 kts 149°
2026-02-18 10:21 37.64090 29.46498 21360 ft 457 kts 149°
2026-02-18 10:21 37.58943 29.50974 20255 ft 441 kts 149°
2026-02-18 10:21 37.56469 29.53131 20125 ft 424 kts 149°
2026-02-18 10:22 37.54139 29.55160 19922 ft 412 kts 149°
2026-02-18 10:22 37.51819 29.57174 19740 ft 399 kts 149°
2026-02-18 10:22 37.49564 29.59128 19579 ft 388 kts 150°
2026-02-18 10:22 37.47394 29.61005 19436 ft 377 kts 150°
2026-02-18 10:23 37.45308 29.62809 19270 ft 368 kts 150°
2026-02-18 10:23 37.43214 29.64617 19137 ft 358 kts 150°
2026-02-18 10:23 37.41222 29.66336 18997 ft 349 kts 150°
2026-02-18 10:23 37.39204 29.68077 18840 ft 341 kts 151°
2026-02-18 10:24 37.37328 29.69695 18728 ft 334 kts 151°
2026-02-18 10:24 37.35428 29.71332 18570 ft 327 kts 151°
2026-02-18 10:24 37.33565 29.72841 18372 ft 318 kts 158°
2026-02-18 10:24 37.31639 29.73973 18140 ft 311 kts 163°
2026-02-18 10:25 37.29628 29.75014 17976 ft 308 kts 164°
2026-02-18 10:25 37.25602 29.77099 17364 ft 326 kts 163°
2026-02-18 10:25 37.23544 29.78203 17070 ft 328 kts 162°
2026-02-18 10:26 37.21448 29.79347 16760 ft 324 kts 162°
2026-02-18 10:26 37.19418 29.80460 16515 ft 320 kts 162°
2026-02-18 10:26 37.17390 29.81570 16234 ft 317 kts 162°
2026-02-18 10:26 37.15516 29.82915 15921 ft 324 kts 142°
2026-02-18 10:27 37.14222 29.85171 15708 ft 328 kts 116°
2026-02-18 10:27 37.13679 29.87914 15457 ft 328 kts 97°
2026-02-18 10:27 37.13477 29.90762 15214 ft 325 kts 96°
2026-02-18 10:27 37.13296 29.93475 15195 ft 315 kts 96°
2026-02-18 10:28 37.13120 29.96235 14974 ft 316 kts 95°
2026-02-18 10:28 37.12943 29.98966 14748 ft 321 kts 96°
2026-02-18 10:28 37.12781 30.01353 14532 ft 332 kts 96°
2026-02-18 10:28 37.12594 30.04051 14276 ft 338 kts 96°
2026-02-18 10:29 37.12381 30.06843 14015 ft 336 kts 96°
2026-02-18 10:29 37.11918 30.12604 13457 ft 330 kts 96°
2026-02-18 10:29 37.11692 30.15432 13190 ft 327 kts 96°
2026-02-18 10:30 37.11465 30.18263 13040 ft 319 kts 96°
2026-02-18 10:30 37.11252 30.20928 12900 ft 312 kts 96°
2026-02-18 10:30 37.11034 30.23611 12740 ft 306 kts 96°
2026-02-18 10:30 37.10825 30.26175 12582 ft 300 kts 96°
2026-02-18 10:31 37.10617 30.28719 12438 ft 294 kts 96°
2026-02-18 10:31 37.10419 30.31134 12286 ft 290 kts 97°
2026-02-18 10:31 37.10210 30.33662 12155 ft 290 kts 97°
2026-02-18 10:31 37.09973 30.36127 12004 ft 288 kts 105°
2026-02-18 10:32 37.09132 30.38321 11636 ft 286 kts 134°
2026-02-18 10:32 37.07626 30.39892 11145 ft 286 kts 153°
2026-02-18 10:32 37.05906 30.41143 10629 ft 294 kts 155°
2026-02-18 10:32 37.04114 30.42377 10116 ft 300 kts 155°
2026-02-18 10:33 37.02324 30.43673 9630 ft 306 kts 151°
2026-02-18 10:33 36.99119 30.47112 8535 ft 321 kts 126°
2026-02-18 10:33 36.97770 30.49355 7972 ft 322 kts 131°
2026-02-18 10:34 36.96360 30.51444 7748 ft 315 kts 132°
2026-02-18 10:34 36.94947 30.53521 7463 ft 311 kts 131°
2026-02-18 10:34 36.93560 30.55579 7045 ft 311 kts 131°
2026-02-18 10:34 36.92189 30.57637 6592 ft 312 kts 130°
2026-02-18 10:35 36.90693 30.59570 6106 ft 313 kts 147°
2026-02-18 10:35 36.88678 30.60542 5659 ft 310 kts 171°
2026-02-18 10:35 36.86586 30.60880 5304 ft 309 kts 171°
2026-02-18 10:35 36.84469 30.61380 4983 ft 309 kts 169°
2026-02-18 10:36 36.82400 30.61919 4679 ft 308 kts 168°
2026-02-18 10:36 36.80321 30.62476 4463 ft 304 kts 169°
2026-02-18 10:36 36.79608 30.62656 4378 ft 303 kts 169°
2026-02-18 10:36 36.78950 30.62826 4302 ft 300 kts 169°
2026-02-18 10:37 36.74360 30.64072 3744 ft 293 kts 168°
2026-02-18 10:37 36.70725 30.65720 3150 ft 273 kts 134°
2026-02-18 10:37 36.69870 30.67727 2893 ft 262 kts 99°
2026-02-18 10:38 36.70084 30.69892 2630 ft 252 kts 67°
2026-02-18 10:38 36.70796 30.71826 2514 ft 235 kts 64°
2026-02-18 10:38 36.71400 30.73171 2399 ft 221 kts 55°
2026-02-18 10:38 36.72368 30.74545 2259 ft 203 kts 39°
2026-02-18 10:39 36.73486 30.75523 2243 ft 183 kts 34°
2026-02-18 10:39 36.74513 30.76396 2256 ft 181 kts 34°
2026-02-18 10:39 36.75549 30.77278 2262 ft 182 kts 34°
2026-02-18 10:39 36.76598 30.78172 2262 ft 182 kts 34°
2026-02-18 10:40 36.77655 30.79068 2109 ft 187 kts 32°
2026-02-18 10:40 36.78881 30.79520 1871 ft 185 kts
2026-02-18 10:40 36.80135 30.79641 1680 ft 183 kts
2026-02-18 10:40 36.81370 30.79799 1551 ft 179 kts
2026-02-18 10:41 36.82532 30.79961 1322 ft 179 kts
2026-02-18 10:41 36.84785 30.80266 885 ft 152 kts
2026-02-18 10:41 36.85816 30.80409 671 ft 152 kts
2026-02-18 10:42 36.86831 30.80542 506 ft 142 kts
2026-02-18 10:42 36.87771 30.80660 312 ft 141 kts
2026-02-18 10:42 36.88589 30.80754 476 ft 141 kts 10°
2026-02-18 10:42 36.89484 30.80962 1222 ft 155 kts 13°
2026-02-18 10:43 36.90639 30.81384 1616 ft 197 kts 19°
2026-02-18 10:43 36.91906 30.81966 2993 ft 181 kts 24°
2026-02-18 10:43 36.93040 30.82598 3580 ft 199 kts 26°
2026-02-18 10:43 36.94363 30.83693 2967 ft 240 kts 39°
2026-02-18 10:44 36.95617 30.85022 2988 ft 229 kts 39°
2026-02-18 10:44 36.96929 30.86165 2683 ft 241 kts 37°
2026-02-18 10:44 36.97906 30.87813 2536 ft 233 kts 77°
2026-02-18 10:44 36.97819 30.89701 2597 ft 231 kts 115°
2026-02-18 10:45 36.96690 30.91255 2635 ft 248 kts 152°
2026-02-18 10:45 36.93462 30.90775 2656 ft 248 kts 216°
2026-02-18 10:45 36.92030 30.89631 2635 ft 248 kts 207°
2026-02-18 10:46 36.90491 30.88641 2633 ft 247 kts 206°
2026-02-18 10:46 36.88977 30.87700 2630 ft 246 kts 204°
2026-02-18 10:46 36.87348 30.87195 2794 ft 240 kts 183°
2026-02-18 10:46 36.85642 30.87071 2986 ft 246 kts 183°
2026-02-18 10:47 36.83935 30.86946 2986 ft 246 kts 184°
2026-02-18 10:47 36.82232 30.86827 2987 ft 244 kts 184°
2026-02-18 10:47 36.80578 30.86713 2994 ft 243 kts 183°
2026-02-18 10:47 36.78895 30.86594 3031 ft 238 kts 184°
2026-02-18 10:48 36.77249 30.86485 2586 ft 238 kts 183°
2026-02-18 10:48 36.75691 30.86379 2450 ft 223 kts 184°
2026-02-18 10:48 36.74278 30.86273 2327 ft 207 kts 187°
2026-02-18 10:48 36.73117 30.85624 2134 ft 193 kts 229°
2026-02-18 10:49 36.72714 30.84180 2017 ft 175 kts 277°
2026-02-18 10:49 36.73259 30.81679 1979 ft 174 kts 304°
2026-02-18 10:49 36.74105 30.80617 2037 ft 182 kts 326°
2026-02-18 10:50 36.75265 30.80050 2028 ft 182 kts 350°
2026-02-18 10:50 36.76512 30.79755 2025 ft 180 kts 348°
2026-02-18 10:50 36.77684 30.79445 2057 ft 166 kts 349°
2026-02-18 10:50 36.78759 30.79446 2007 ft 161 kts
2026-02-18 10:51 36.79792 30.79601 1853 ft 156 kts
2026-02-18 10:51 36.80841 30.79729 1657 ft 153 kts
2026-02-18 10:51 36.81873 30.79868 1461 ft 151 kts
2026-02-18 10:51 36.82914 30.80012 1281 ft 153 kts
2026-02-18 10:52 36.83937 30.80152 1043 ft 150 kts
2026-02-18 10:52 36.84897 30.80283 851 ft 144 kts
2026-02-18 10:52 36.85551 30.80373 724 ft 143 kts
2026-02-18 10:52 36.86789 30.80544 487 ft 142 kts
2026-02-18 10:53 36.87736 30.80672 306 ft 143 kts
2026-02-18 10:53 36.89103 30.80869 183 ft 101 kts 15°
2026-02-18 10:53 36.89515 30.80922 183 ft 41 kts
2026-02-18 10:54 36.89718 30.80947 182 ft 29 kts
2026-02-18 10:54 36.89830 30.80949 183 ft 7 kts 355°
2026-02-18 10:54 36.89894 30.80937 186 ft 13 kts 348°
2026-02-18 10:54 36.89978 30.80900 186 ft 13 kts 337°
2026-02-18 10:55 36.90038 30.80868 192 ft 0 kts 336°
2026-02-18 10:55 36.90050 30.80862 186 ft 8 kts 336°
2026-02-18 10:56 36.90091 30.80810 197 ft 9 kts 277°
2026-02-18 10:56 36.90052 30.80758 190 ft 9 kts 186°
2026-02-18 10:56 36.89994 30.80749 190 ft 9 kts 187°
2026-02-18 10:56 36.89937 30.80740 192 ft 8 kts 187°
2026-02-18 10:57 36.89881 30.80732 201 ft 8 kts 187°
2026-02-18 10:57 36.89785 30.80721 193 ft 7 kts 182°
2026-02-18 10:57 36.89740 30.80715 190 ft 6 kts 188°
2026-02-18 10:58 36.89696 30.80710 202 ft 6 kts 187°
2026-02-18 10:58 36.89653 30.80703 192 ft 6 kts 187°
2026-02-18 10:58 36.89624 30.80699 200 ft 6 kts 187°
2026-02-18 10:58 36.89569 30.80690 195 ft 6 kts 187°
2026-02-18 10:59 36.89542 30.80687 194 ft 6 kts 186°
2026-02-18 10:59 36.89481 30.80679 202 ft 17 kts 186°
2026-02-18 10:59 36.89373 30.80664 190 ft 13 kts 186°
2026-02-18 10:59 36.89254 30.80648 193 ft 13 kts 186°
2026-02-18 11:00 36.89169 30.80637 190 ft 12 kts 186°
2026-02-18 11:00 36.89137 30.80631 194 ft 5 kts 196°
2026-02-18 11:00 36.89115 30.80581 199 ft 5 kts 264°
2026-02-18 11:00 36.89116 30.80550 195 ft 5 kts 276°
2026-02-18 11:01 36.89119 30.80506 201 ft 5 kts 273°
2026-02-18 11:01 36.89131 30.80365 194 ft 16 kts 276°
2026-02-18 11:01 36.89143 30.80234 191 ft 15 kts 276°
2026-02-18 11:02 36.89151 30.80134 191 ft 6 kts 273°
2026-02-18 11:02 36.89124 30.80103 196 ft 6 kts 196°
2026-02-18 11:02 36.89084 30.80096 191 ft 6 kts 186°
2026-02-18 11:02 36.89044 30.80095 191 ft 6 kts 160°
2026-02-18 11:03 36.89028 30.80131 193 ft 3 kts 95°
2026-02-18 11:03 36.89027 30.80146 195 ft 0 kts 96°